GW3044 Weather Reports


time (UTC)temp
F
wind
direction
speed
knots
gust
knots
rain 1hr
in
rain 24hr
in
rain mn
in
humidity
%
barometer
mb
20260906172141 99 31 2.6 7.0 0.00 0.00 0.00 41 987.1
20260906171640 98 37 2.6 4.3 0.00 0.00 0.00 43 987.4
20260906171136 100 88 1.7 4.3 0.00 0.00 0.00 42 987.7
20260906170632 99 28 1.7 11.3 0.00 0.00 0.00 43 987.5
20260906170131 100 81 0.0 4.3 0.00 0.00 0.00 46 987.6
20260906165628 99 112 3.5 5.2 0.00 0.00 0.00 43 987.6
20260906165123 99 213 0.9 5.2 0.00 0.00 0.00 44 987.7
20260906164622 98 263 0.0 3.5 0.00 0.00 0.00 47 987.8
20260906164117 97 170 0.9 3.5 0.00 0.00 0.00 45 987.9
20260906163613 98 7 2.6 4.3 0.00 0.00 0.00 45 987.8
20260906163108 98 117 1.7 7.0 0.00 0.00 0.00 44 987.9
20260906162605 97 43 3.5 7.0 0.00 0.00 0.00 47 987.9
20260906162100 97 155 0.0 4.3 0.00 0.00 0.00 45 987.9
20260906161555 97 196 0.0 6.1 0.00 0.00 0.00 46 987.9
20260906161054 96 126 0.0 6.1 0.00 0.00 0.00 47 988.0
20260906160553 97 133 3.5 4.3 0.00 0.00 0.00 45 988.1
20260906160052 96 317 1.7 5.2 0.00 0.00 0.00 52 988.0
20260906155549 95 125 2.6 2.6 0.00 0.00 0.00 49 987.9
20260906155046 95 3 1.7 4.3 0.00 0.00 0.00 50 987.7
20260906154541 93 352 0.9 3.5 0.00 0.00 0.00 51 987.9
20260906154040 95 341 1.7 2.6 0.00 0.00 0.00 48 987.9
20260906153538 94 113 1.7 2.6 0.00 0.00 0.00 50 987.8
20260906153034 94 109 0.0 3.5 0.00 0.00 0.00 50 987.9
20260906152533 95 60 0.0 1.7 0.00 0.00 0.00 49 987.8
20260906152033 93 24 0.9 4.3 0.00 0.00 0.00 52 988.0
20260906151528 91 300 0.9 2.6 0.00 0.00 0.00 53 987.8
20260906151025 93 22 0.0 1.7 0.00 0.00 0.00 52 987.6
20260906150519 93 144 0.9 2.6 0.00 0.00 0.00 51 987.7
20260906150015 93 96 2.6 3.5 0.00 0.00 0.00 52 987.7
20260906145513 90 309 0.0 0.9 0.00 0.00 0.00 60 987.6
20260906145008 89 304 0.9 1.7 0.00 0.00 0.00 58 987.8
20260906144502 89 2 0.0 2.6 0.00 0.00 0.00 59 987.6
20260906143952 89 340 0.0 1.7 0.00 0.00 0.00 59 987.9
20260906143447 91 89 0.0 2.6 0.00 0.00 0.00 57 987.7
20260906142944 91 292 0.0 2.6 0.00 0.00 0.00 58 987.8
20260906142442 88 212 0.0 1.7 0.00 0.00 0.00 60 987.8
20260906141938 89 255 0.0 1.7 0.00 0.00 0.00 59 987.9
20260906141431 88 55 0.0 0.9 0.00 0.00 0.00 62 987.7
20260906140926 88 62 1.7 2.6 0.00 0.00 0.00 61 987.8
20260906140421 87 336 0.0 1.7 0.00 0.00 0.00 62 988.0
20260906135918 85 49 0.0 2.6 0.00 0.00 0.00 67 987.6
20260906135412 84 15 0.0 2.6 0.00 0.00 0.00 68 987.7
20260906134908 84 101 1.7 2.6 0.00 0.00 0.00 70 987.6
20260906134403 82 71 1.7 2.6 0.00 0.00 0.00 73 987.7
20260906133858 82 87 1.7 2.6 0.00 0.00 0.00 74 987.8
20260906133354 81 106 0.9 2.6 0.00 0.00 0.00 77 987.6
20260906132849 81 106 0.9 1.7 0.00 0.00 0.00 78 987.7
20260906132344 80 214 0.0 1.7 0.00 0.00 0.00 79 987.5
20260906131840 79 121 0.9 2.6 0.00 0.00 0.00 81 987.6
20260906131335 78 137 0.9 1.7 0.00 0.00 0.00 82 987.8
20260906130831 77 343 0.0 1.7 0.00 0.00 0.00 84 987.6
20260906130330 76 11 0.0 1.7 0.00 0.00 0.00 85 987.6
20260906125829 75 335 0.0 0.9 0.00 0.00 0.00 86 987.5
20260906125327 75 284 0.0 1.7 0.00 0.00 0.00 88 987.6
20260906124822 75 29 0.0 1.7 0.00 0.00 0.00 88 987.2
20260906124318 74 67 0.9 1.7 0.00 0.00 0.00 89 987.3
20260906123816 74 66 0.0 0.9 0.00 0.00 0.00 90 987.1
20260906123311 73 332 0.0 0.9 0.00 0.00 0.00 91 987.2
20260906122811 73 80 0.0 1.7 0.00 0.00 0.00 92 987.1
20260906122301 72 101 0.0 1.7 0.00 0.00 0.00 93 987.0
20260906121757 72 247 0.0 1.7 0.00 0.00 0.00 93 987.1
20260906121248 72 101 0.0 0.9 0.00 0.00 0.00 93 987.0
20260906120743 72 187 0.0 1.7 0.00 0.00 0.00 93 986.8
20260906120240 71 217 0.9 1.7 0.00 0.00 0.00 94 986.9
20260906115735 71 66 0.0 0.0 0.00 0.00 0.00 94 986.7
20260906115230 71 113 0.0 0.9 0.00 0.00 0.00 94 986.6
20260906114729 71 117 0.0 0.9 0.00 0.00 0.00 93 986.6
20260906114224 71 135 0.0 0.9 0.00 0.00 0.00 93 986.7
20260906113720 71 89 0.0 0.9 0.00 0.00 0.00 93 986.6
20260906113218 71 124 0.0 1.7 0.00 0.00 0.00 93 986.8
20260906112713 72 89 0.0 1.7 0.00 0.00 0.00 93 986.7
20260906112210 72 309 0.0 1.7 0.00 0.00 0.00 93 986.5
20260906111709 72 333 0.0 1.7 0.00 0.00 0.00 93 986.5
20260906111203 72 68 0.9 1.7 0.00 0.00 0.00 92 986.4
20260906110658 72 230 0.0 0.9 0.00 0.00 0.00 92 986.6
20260906110154 72 89 0.0 0.9 0.00 0.00 0.00 92 986.4
20260906105647 72 66 0.0 0.9 0.00 0.00 0.00 92 986.4
20260906105144 72 230 0.0 0.9 0.00 0.00 0.00 92 986.2
20260906104643 72 235 0.0 0.9 0.00 0.00 0.00 92 986.4
20260906104142 72 358 0.9 1.7 0.00 0.00 0.00 92 986.5
20260906103640 72 63 0.0 1.7 0.00 0.00 0.00 92 986.5
20260906103136 72 342 0.9 1.7 0.00 0.00 0.00 92 986.4
20260906102631 72 24 1.7 1.7 0.00 0.00 0.00 92 986.4
20260906102125 72 89 0.0 0.9 0.00 0.00 0.00 92 986.4
20260906101620 72 66 0.0 0.9 0.00 0.00 0.00 92 986.4
20260906101114 72 91 0.0 0.9 0.00 0.00 0.00 92 986.3
20260906100610 72 50 0.0 0.0 0.00 0.00 0.00 92 986.1
20260906100110 72 44 0.0 1.7 0.00 0.00 0.00 92 986.4
20260906095610 72 310 0.0 1.7 0.00 0.00 0.00 92 986.3
20260906095106 72 54 0.0 0.9 0.00 0.00 0.00 91 986.3
20260906094605 72 60 0.0 0.9 0.00 0.00 0.00 91 986.4
20260906094101 73 89 0.0 0.0 0.00 0.00 0.00 91 986.3
20260906093556 73 111 0.0 0.9 0.00 0.00 0.00 90 986.2
20260906093051 73 91 0.0 1.7 0.00 0.00 0.00 90 986.2
20260906092546 73 89 0.0 0.0 0.00 0.00 0.00 90 986.2
20260906092041 73 269 0.0 0.0 0.00 0.00 0.00 90 986.2
20260906091537 73 333 0.0 0.9 0.00 0.00 0.00 90 986.1
20260906091034 73 283 0.0 0.9 0.00 0.00 0.00 90 986.3
20260906090533 73 77 0.0 0.9 0.00 0.00 0.00 89 986.2
20260906090028 73 38 0.0 0.0 0.00 0.00 0.00 89 986.2
20260906085527 73 44 0.0 1.7 0.00 0.00 0.00 89 986.2
20260906085027 73 84 0.0 0.9 0.00 0.00 0.00 89 986.0
20260906084522 74 87 0.0 0.9 0.00 0.00 0.00 88 985.9
20260906084020 74 37 0.0 0.9 0.00 0.00 0.00 88 986.2
20260906083516 74 89 0.0 0.9 0.00 0.00 0.00 88 986.1
20260906083016 74 269 0.0 0.9 0.00 0.00 0.00 88 986.1
20260906082511 74 322 0.0 1.7 0.00 0.00 0.00 88 986.2
20260906082007 74 62 0.0 0.9 0.00 0.00 0.00 88 986.0
20260906081502 74 50 0.0 0.0 0.00 0.00 0.00 88 985.9
20260906080958 74 50 0.0 0.0 0.00 0.00 0.00 88 986.0
20260906080454 74 89 0.0 0.9 0.00 0.00 0.00 87 986.0
20260906075954 74 69 0.0 0.9 0.00 0.00 0.00 87 986.1
20260906075449 75 99 0.0 0.9 0.00 0.00 0.00 87 985.8
20260906074944 75 242 0.0 0.0 0.00 0.00 0.00 86 985.9
20260906074439 75 89 0.0 0.0 0.00 0.00 0.00 86 986.0
20260906073937 75 89 0.0 0.9 0.00 0.00 0.00 86 986.0
20260906073433 75 62 0.0 0.9 0.00 0.00 0.00 86 985.8
20260906072929 75 75 0.0 0.0 0.00 0.00 0.00 85 986.2
20260906072424 75 89 0.9 0.9 0.00 0.00 0.00 85 986.1
20260906071920 75 113 0.0 0.0 0.00 0.00 0.00 85 986.0
20260906071416 75 104 0.0 0.0 0.00 0.00 0.00 84 986.1
20260906070912 76 104 0.0 0.0 0.00 0.00 0.00 84 986.2
20260906070407 76 104 0.0 0.9 0.00 0.00 0.00 83 986.1
20260906065903 76 326 0.0 0.9 0.00 0.00 0.00 83 986.2
20260906065356 76 322 0.0 0.0 0.00 0.00 0.00 83 986.3
20260906064852 76 44 0.0 0.9 0.00 0.00 0.00 83 986.2
20260906064348 76 242 0.0 0.0 0.00 0.00 0.00 82 986.3
20260906063843 76 224 0.0 0.9 0.00 0.00 0.00 82 986.5
20260906063338 76 309 0.0 0.9 0.00 0.00 0.00 81 986.4
20260906062833 77 242 0.0 0.9 0.00 0.00 0.00 81 986.2
20260906062332 77 141 0.0 0.9 0.00 0.00 0.00 80 986.3
20260906061828 77 322 0.0 0.9 0.00 0.00 0.00 80 986.5
20260906061324 77 62 0.0 0.0 0.00 0.00 0.00 79 986.5
20260906060819 78 62 0.0 0.9 0.00 0.00 0.00 78 986.3
20260906060317 78 246 0.0 0.9 0.00 0.00 0.00 77 986.2
20260906055812 78 224 0.0 0.0 0.00 0.00 0.00 77 986.3
20260906055308 78 281 0.0 0.9 0.00 0.00 0.00 77 986.3
20260906054803 78 202 0.0 0.9 0.00 0.00 0.00 76 986.1
20260906054258 79 101 0.0 0.9 0.00 0.00 0.00 74 986.2
20260906053754 80 238 0.0 2.6 0.00 0.00 0.00 73 986.3
20260906053250 80 297 0.0 0.0 0.00 0.00 0.00 70 986.0
20260906052744 81 297 0.0 0.9 0.00 0.00 0.00 66 986.2
20260906052241 81 25 0.0 0.0 0.00 0.00 0.00 66 986.1
20260906051738 81 25 0.0 0.0 0.00 0.00 0.00 66 986.0
20260906051237 81 25 0.0 0.0 0.00 0.00 0.00 66 986.0
20260906050732 82 25 0.0 0.9 0.00 0.00 0.00 65 986.1
20260906050227 81 37 0.0 0.0 0.00 0.00 0.00 65 986.0
20260906045726 82 15 0.0 1.7 0.00 0.00 0.00 65 986.1
20260906045216 82 38 0.0 0.9 0.00 0.00 0.00 66 986.2
20260906044711 82 333 0.0 0.0 0.00 0.00 0.00 65 986.1
20260906044206 82 55 0.0 1.7 0.00 0.00 0.00 64 985.9
20260906043703 82 343 0.0 0.9 0.00 0.00 0.00 66 986.0
20260906043158 82 37 0.0 0.0 0.00 0.00 0.00 64 986.0
20260906042657 83 345 0.0 1.7 0.00 0.00 0.00 64 986.0
20260906042151 82 4 0.0 1.7 0.00 0.00 0.00 65 986.1
20260906041647 83 39 0.0 1.7 0.00 0.00 0.00 65 986.3
20260906041142 83 15 1.7 1.7 0.00 0.00 0.00 64 986.2
20260906040637 83 356 0.9 1.7 0.00 0.00 0.00 65 986.0
20260906040133 82 11 0.0 1.7 0.00 0.00 0.00 66 986.0
20260906035628 83 25 0.0 1.7 0.00 0.00 0.00 66 986.0
20260906035123 83 322 0.0 0.9 0.00 0.00 0.00 65 986.1
20260906034618 84 70 0.9 1.7 0.00 0.00 0.00 64 986.0
20260906034113 83 44 0.0 1.7 0.00 0.00 0.00 64 985.9
20260906033608 83 22 0.0 0.9 0.00 0.00 0.00 65 986.0
20260906033102 83 13 0.0 0.0 0.00 0.00 0.00 64 985.8
20260906032559 84 304 0.0 1.7 0.00 0.00 0.00 64 985.7
20260906032054 84 329 0.0 1.7 0.00 0.00 0.00 64 985.8
20260906031549 84 45 0.0 1.7 0.00 0.00 0.00 63 985.8
20260906031045 84 3 0.9 1.7 0.00 0.00 0.00 63 986.0
20260906030544 84 343 0.0 1.7 0.00 0.00 0.00 63 985.8
20260906030043 84 350 0.9 1.7 0.00 0.00 0.00 62 986.0
20260906025538 85 22 0.9 1.7 0.00 0.00 0.00 61 985.9
20260906025036 85 102 1.7 2.6 0.00 0.00 0.00 60 985.6
20260906024531 86 98 0.9 1.7 0.00 0.00 0.00 59 985.8
20260906024025 86 76 0.9 2.6 0.00 0.00 0.00 59 985.7
20260906023522 86 89 0.9 3.5 0.00 0.00 0.00 59 985.4
20260906023016 86 83 0.9 2.6 0.00 0.00 0.00 58 985.6
20260906022511 86 82 0.9 1.7 0.00 0.00 0.00 58 985.6
20260906022007 86 304 0.0 2.6 0.00 0.00 0.00 58 985.3
20260906021503 87 87 0.9 1.7 0.00 0.00 0.00 57 985.3
20260906020957 87 87 0.9 1.7 0.00 0.00 0.00 56 985.3
20260906020450 87 0 0.0 4.3 0.00 0.00 0.00 56 985.2
20260906015949 88 350 0.0 2.6 0.00 0.00 0.00 55 985.0
20260906015444 88 58 2.6 2.6 0.00 0.00 0.00 54 985.1
20260906014944 88 49 1.7 2.6 0.00 0.00 0.00 54 985.0
20260906014438 89 56 1.7 2.6 0.00 0.00 0.00 53 984.9
20260906013934 89 49 1.7 2.6 0.00 0.00 0.00 53 984.8
20260906013430 89 29 0.9 2.6 0.00 0.00 0.00 52 984.7
20260906012926 90 30 1.7 7.0 0.00 0.00 0.00 52 985.0
20260906012426 90 28 1.7 3.5 0.00 0.00 0.00 52 984.6
20260906011924 89 67 1.7 4.3 0.00 0.00 0.00 53 984.6
20260906011420 88 86 1.7 2.6 0.00 0.00 0.00 56 984.8
20260906010916 89 22 0.0 1.7 0.00 0.00 0.00 55 984.5
20260906010411 89 322 0.0 0.9 0.00 0.00 0.00 52 984.3
20260906005907 89 343 0.0 0.0 0.00 0.00 0.00 52 984.6
20260906005406 89 37 0.0 0.9 0.00 0.00 0.00 52 984.4
20260906004904 90 345 0.0 0.0 0.00 0.00 0.00 51 984.7
20260906004359 90 345 0.0 0.0 0.00 0.00 0.00 50 984.5
20260906003855 91 345 0.0 0.0 0.00 0.00 0.00 49 984.5
20260906003350 92 7 0.9 0.9 0.00 0.00 0.00 47 984.6
20260906002846 92 350 0.0 1.7 0.00 0.00 0.00 47 984.6
20260906002344 92 5 0.9 3.5 0.00 0.00 0.00 46 984.5
20260906001840 92 350 1.7 2.6 0.00 0.00 0.00 48 984.6
20260906001336 94 350 0.0 0.9 0.00 0.00 0.00 44 984.2
20260906000831 94 297 0.0 0.9 0.00 0.00 0.00 41 984.3
20260906000326 95 49 0.0 0.0 0.00 0.00 0.00 40 984.6
20260905235825 96 343 0.0 0.9 0.00 0.00 0.00 40 984.6
20260905235320 96 104 0.0 1.7 0.00 0.00 0.00 39 984.4
20260905234816 96 79 0.0 0.9 0.00 0.00 0.00 38 984.5
20260905234310 96 116 0.9 2.6 0.00 0.00 0.00 37 984.5
20260905233800 97 300 0.0 2.6 0.00 0.00 0.00 38 984.2
20260905233259 97 38 0.0 1.7 0.00 0.00 0.00 37 984.2
20260905232758 97 88 0.0 2.6 0.00 0.00 0.00 37 984.5
20260905232255 98 52 0.0 4.3 0.00 0.00 0.00 36 984.2
20260905231745 98 355 0.9 3.5 0.00 0.00 0.00 37 984.3
20260905231240 98 99 2.6 4.3 0.00 0.00 0.00 36 984.2
20260905230736 99 89 0.9 4.3 0.00 0.00 0.00 35 984.4
20260905230233 100 139 0.0 4.3 0.00 0.00 0.00 35 984.4
20260905225728 100 131 0.0 2.6 0.00 0.00 0.00 35 984.1
20260905225223 100 101 0.0 5.2 0.00 0.00 0.00 35 984.3
20260905224722 101 117 1.7 3.5 0.00 0.00 0.00 35 984.1
20260905224218 102 100 3.5 5.2 0.00 0.00 0.00 35 984.2
20260905223714 103 297 0.0 1.7 0.00 0.00 0.00 35 984.1
20260905223210 104 217 0.0 0.0 0.00 0.00 0.00 33 984.2
20260905222706 102 336 0.0 0.9 0.00 0.00 0.00 34 984.2
20260905222205 101 346 1.7 2.6 0.00 0.00 0.00 34 984.4
20260905221701 102 5 1.7 6.1 0.00 0.00 0.00 35 984.2
20260905221157 103 203 2.6 2.6 0.00 0.00 0.00 34 984.3
20260905220653 103 0 0.9 1.7 0.00 0.00 0.00 34 984.3
20260905220149 102 235 0.0 2.6 0.00 0.00 0.00 36 984.5
20260905215643 101 99 4.3 6.1 0.00 0.00 0.00 36 984.4
20260905215138 101 112 1.7 3.5 0.00 0.00 0.00 36 984.5
20260905214634 102 347 1.7 4.3 0.00 0.00 0.00 38 984.5
20260905214129 101 102 2.6 3.5 0.00 0.00 0.00 36 984.3
20260905213625 102 135 0.9 1.7 0.00 0.00 0.00 36 984.5
20260905213120 102 126 1.7 3.5 0.00 0.00 0.00 36 984.5
20260905212615 102 85 3.5 5.2 0.00 0.00 0.00 35 984.6
20260905212114 102 135 0.0 2.6 0.00 0.00 0.00 36 984.5
20260905211610 102 130 0.0 4.3 0.00 0.00 0.00 35 984.7
20260905211105 101 190 0.0 3.5 0.00 0.00 0.00 36 984.8
20260905210601 100 110 4.3 7.8 0.00 0.00 0.00 37 984.9
20260905210056 101 86 3.5 6.1 0.00 0.00 0.00 36 985.0
20260905205555 102 97 2.6 3.5 0.00 0.00 0.00 36 985.1
20260905205055 102 139 1.7 2.6 0.00 0.00 0.00 36 985.1
20260905204549 102 108 0.0 2.6 0.00 0.00 0.00 37 985.2
20260905204045 102 89 2.6 5.2 0.00 0.00 0.00 37 985.3
20260905203544 100 339 2.6 4.3 0.00 0.00 0.00 38 985.2
20260905203040 99 300 1.7 5.2 0.00 0.00 0.00 40 985.6
20260905202535 99 65 3.5 5.2 0.00 0.00 0.00 40 985.6
20260905202031 100 1 2.6 4.3 0.00 0.00 0.00 39 985.4
20260905201526 100 29 4.3 7.8 0.00 0.00 0.00 39 985.6
20260905201025 101 105 2.6 7.0 0.00 0.00 0.00 38 985.9
20260905200521 101 95 5.2 7.0 0.00 0.00 0.00 39 985.8
20260905200020 100 340 0.9 4.3 0.00 0.00 0.00 39 985.9
20260905195514 101 299 2.6 6.1 0.00 0.00 0.00 38 986.1
20260905195009 102 52 1.7 4.3 0.00 0.00 0.00 40 986.0
20260905194504 101 102 1.7 2.6 0.00 0.00 0.00 38 986.0
20260905194004 101 145 0.0 4.3 0.00 0.00 0.00 40 986.2
20260905193458 101 125 1.7 4.3 0.00 0.00 0.00 40 986.2
20260905192953 101 213 0.9 2.6 0.00 0.00 0.00 40 986.1
20260905192449 99 92 0.0 1.7 0.00 0.00 0.00 43 986.5
20260905191945 96 128 0.9 4.3 0.00 0.00 0.00 45 986.4
20260905191443 96 215 0.0 1.7 0.00 0.00 0.00 45 986.4
20260905190937 96 353 0.9 2.6 0.00 0.00 0.00 45 986.7
20260905190435 96 358 0.9 2.6 0.00 0.00 0.00 45 986.6
20260905185934 97 320 1.7 3.5 0.00 0.00 0.00 45 986.8
20260905185429 98 10 2.6 4.3 0.00 0.00 0.00 42 986.8
20260905184928 99 295 1.7 4.3 0.00 0.00 0.00 42 986.8
20260905184423 99 318 4.3 7.0 0.00 0.00 0.00 41 986.9
20260905183922 98 288 1.7 5.2 0.00 0.00 0.00 45 987.0
20260905183416 98 348 2.6 3.5 0.00 0.00 0.00 43 986.9
20260905182911 98 307 0.0 3.5 0.00 0.00 0.00 43 987.1
20260905182410 97 295 1.7 2.6 0.00 0.00 0.00 46 987.2
20260905181907 95 331 2.6 4.3 0.00 0.00 0.00 46 987.2
20260905181407 96 348 0.9 5.2 0.00 0.00 0.00 45 987.3
20260905180905 97 330 2.6 5.2 0.00 0.00 0.00 44 987.3
20260905180401 99 352 0.9 2.6 0.00 0.00 0.00 43 987.4
20260905175856 98 240 3.5 4.3 0.00 0.00 0.00 43 987.6
20260905175355 98 326 0.9 4.3 0.00 0.00 0.00 43 987.6
20260905174850 97 26 0.9 5.2 0.00 0.00 0.00 45 987.6
20260905174346 97 24 3.5 4.3 0.00 0.00 0.00 44 987.8
20260905173842 98 68 2.6 3.5 0.00 0.00 0.00 45 987.7
20260905173337 96 41 1.7 2.6 0.00 0.00 0.00 48 987.8
20260905172832 96 355 1.7 6.1 0.00 0.00 0.00 46 987.9